GFSNGP_850_thetae_273.txt.gz
Theta_e
324 324 325 326 329 332 334 334 335 334 338 338 339 339 342 340 342 348 351 351 351 346 354 354 352 347 342 337 334 333 335 335 334 334 335 333 333 333 333 332 332 332 332 332
324 321 323 326 328 330 331 331 334 335 335 335 335 338 341 341 345 349 351 351 354 353 352 353 350 346 339 337 338 337 337 336 336 336 337 337 336 335 334 333 332 332 332 330
326 324 325 327 328 329 330 332 333 335 336 337 340 342 341 341 342 349 351 352 355 355 354 353 351 345 339 339 339 339 338 338 339 338 335 334 334 334 332 331 330 327 324 321
330 329 329 329 325 328 329 330 332 334 336 336 339 340 340 341 342 346 351 352 354 355 354 353 349 343 340 339 341 341 340 339 337 336 336 334 334 332 331 327 322 317 313 310
335 333 329 329 336 336 336 334 334 336 338 339 340 339 341 341 343 343 346 348 353 353 353 350 343 339 339 341 342 341 340 338 337 336 335 334 332 329 324 315 310 308 310 312
329 334 332 333 337 337 337 334 336 338 340 341 342 345 344 339 343 346 348 352 353 352 351 347 341 339 341 341 343 343 341 340 338 335 334 331 325 316 310 310 311 313 313 313
332 334 332 328 337 336 339 335 337 338 340 340 344 344 342 339 347 349 348 350 353 351 350 349 345 341 343 343 344 344 342 340 337 335 329 320 313 311 312 313 314 313 313 312
338 337 337 336 336 340 340 338 337 338 341 340 343 343 343 339 347 347 350 352 353 351 351 351 344 341 343 346 346 343 341 338 336 327 318 312 312 313 314 314 314 314 314 314
340 340 338 337 337 336 335 337 337 337 340 342 341 343 344 342 349 347 350 352 352 352 351 350 344 344 347 346 345 342 339 337 330 319 312 312 314 314 314 314 314 314 314 312
337 338 335 334 336 335 335 336 334 337 339 341 340 343 345 348 349 350 348 351 352 352 352 349 346 348 349 346 342 340 337 333 321 312 314 315 314 314 313 312 311 311 311 311
337 335 333 331 332 332 332 332 333 336 339 340 341 341 345 347 347 344 346 351 352 352 351 348 345 347 346 342 340 337 333 319 313 314 314 314 313 312 311 311 311 310 310 310
336 333 334 334 332 331 330 334 332 334 340 341 342 340 341 346 348 349 350 351 352 351 348 344 341 344 341 339 336 329 315 312 314 314 313 313 311 311 311 310 309 309 309 307
333 330 329 330 331 331 333 334 334 334 336 341 341 341 341 341 343 347 349 348 348 348 344 341 341 341 338 335 321 312 310 311 311 313 313 312 311 312 311 309 309 310 307 307
327 329 332 332 333 332 333 335 336 336 337 342 343 343 344 344 344 345 345 349 346 341 340 341 340 336 327 315 311 309 310 312 313 314 313 312 313 312 310 309 312 311 308 310
328 331 331 333 330 333 334 334 334 335 336 340 342 340 342 342 343 344 345 343 342 341 340 337 332 319 314 310 309 312 313 314 315 314 314 313 313 311 309 309 311 311 311 311
331 331 331 331 332 333 332 333 336 334 336 339 339 339 343 342 343 343 342 340 339 338 335 323 316 314 312 312 314 315 315 312 312 312 312 311 310 309 311 311 312 311 311 311
330 332 330 331 333 331 331 332 336 334 336 341 341 342 341 341 341 340 338 337 336 332 321 316 315 312 313 315 314 314 311 312 312 311 310 309 311 311 311 311 311 311 311 310
330 328 327 332 331 330 332 332 336 336 339 340 336 336 336 335 335 334 333 333 333 326 319 316 313 311 313 314 313 312 312 312 312 310 309 310 310 309 310 311 311 310 310 309
329 328 327 330 329 330 333 334 334 337 340 337 336 335 334 334 333 333 334 332 332 322 317 315 312 312 313 313 312 311 312 314 311 309 310 310 310 310 310 310 310 309 310 310
329 328 328 329 329 330 332 335 337 336 338 337 336 336 336 334 334 334 334 333 326 319 317 313 311 313 312 313 315 317 316 314 311 310 310 309 310 309 309 309 310 310 311 312
334 331 329 329 329 329 331 334 335 334 335 335 331 329 329 326 328 332 333 327 320 317 316 312 313 313 314 315 316 316 316 314 310 310 310 308 309 310 311 311 312 313 313 313
329 333 332 330 329 329 329 330 335 334 333 332 331 327 327 327 332 334 330 321 318 316 315 313 315 315 316 316 315 315 314 309 309 308 308 310 311 312 313 313 312 312 312 313
328 329 332 332 332 332 331 330 333 333 332 332 331 331 334 334 335 331 323 319 317 314 313 313 315 316 316 315 315 309 307 307 308 309 310 312 313 313 313 313 312 312 313 313
329 328 329 331 334 333 333 334 336 336 333 333 333 334 336 334 331 325 320 318 316 314 314 316 316 316 316 313 308 307 307 307 309 311 313 313 313 312 312 312 313 313 314 314
329 329 329 331 334 334 334 334 335 337 337 338 336 335 333 328 324 321 319 316 316 315 315 316 317 316 312 309 307 307 306 309 312 313 312 312 312 313 313 314 315 315 314 314
328 330 330 331 334 335 335 335 338 339 337 336 334 333 329 324 322 321 317 317 317 317 317 316 316 314 310 309 307 306 310 312 312 312 312 312 313 314 315 316 316 315 315 314
332 332 332 333 334 333 334 335 337 335 335 333 331 329 326 323 322 320 317 316 315 314 314 314 314 312 309 307 307 311 312 312 312 312 312 313 315 316 316 316 316 316 315 314

GFSNGP_850_thetae_276.txt.gz
Theta_e
326 327 328 331 332 333 335 335 336 336 335 336 336 339 341 344 348 352 354 354 354 356 355 357 355 353 351 348 343 345 346 344 338 337 339 336 336 336 335 339 338 338 336 334
327 327 327 328 330 333 335 335 334 333 334 334 335 342 342 344 345 350 354 354 354 354 355 356 354 350 347 343 345 346 345 339 332 334 335 334 334 334 334 334 334 333 332 329
328 328 327 327 328 329 331 331 331 332 333 334 336 339 343 344 345 348 353 354 355 356 356 355 352 348 347 346 346 345 339 334 334 336 337 336 335 335 334 332 331 328 324 321
330 331 329 329 330 330 331 330 330 331 333 333 337 341 342 344 344 347 351 354 357 357 357 355 351 347 346 346 346 344 341 339 338 336 334 334 334 333 331 328 323 318 313 310
334 331 329 331 332 333 333 332 332 333 332 332 339 344 343 343 344 346 351 355 358 358 356 354 351 348 347 346 345 343 342 339 336 336 335 334 333 329 322 316 311 309 313 312
336 334 331 331 337 339 338 333 339 339 339 340 341 342 345 346 344 345 351 356 358 358 356 353 351 348 347 346 343 344 341 339 338 335 335 332 326 316 311 310 311 319 320 318
335 335 334 337 340 339 337 339 340 341 342 345 346 344 347 346 346 347 352 357 358 357 354 351 349 347 347 346 346 344 342 340 337 335 332 323 313 311 311 316 315 316 319 315
337 337 337 337 339 341 343 342 342 342 343 345 346 344 345 346 348 348 353 357 357 354 352 350 350 348 348 345 346 341 340 338 336 332 324 314 311 313 316 315 320 321 320 319
336 337 343 339 339 340 340 340 342 341 341 342 345 344 346 346 350 353 356 357 356 355 353 352 350 349 348 346 343 342 340 337 334 324 314 312 318 320 321 316 320 319 317 316
342 333 336 338 338 339 339 339 338 338 340 342 344 344 346 350 350 355 358 357 356 356 355 352 350 349 345 346 344 342 340 335 328 316 316 321 320 319 318 317 316 316 315 314
341 340 337 337 337 337 337 336 337 337 340 343 344 346 347 350 350 353 357 358 357 355 352 349 347 346 347 343 341 341 338 328 322 320 320 318 317 316 316 313 312 312 313 312
338 339 337 336 336 336 336 337 339 339 341 344 345 347 348 352 354 353 355 356 355 351 349 346 345 344 342 341 337 339 333 322 319 318 317 317 316 313 311 310 309 308 307 306
334 334 335 334 334 335 336 338 340 340 341 344 347 348 348 350 350 348 349 349 348 346 345 344 339 339 340 339 339 333 321 318 316 317 318 317 316 316 316 314 313 312 308 308
331 331 332 333 335 336 337 340 340 342 343 345 347 347 347 347 342 345 346 345 345 344 339 334 334 337 338 336 327 314 318 315 318 319 318 316 316 316 314 313 312 313 312 312
331 332 332 333 334 336 338 340 341 342 342 344 346 347 345 341 342 341 343 344 342 339 338 340 337 336 329 317 312 312 317 318 319 318 317 317 316 315 313 313 312 313 313 313
332 331 333 335 335 335 336 338 339 340 342 344 345 344 344 340 340 342 343 342 339 340 339 338 329 318 313 312 316 319 318 316 316 316 315 315 314 313 313 312 312 313 313 313
334 333 332 336 336 335 335 336 336 338 343 344 344 343 339 337 339 338 338 338 338 337 335 329 320 316 313 311 319 317 315 314 314 314 313 313 312 312 312 312 313 313 313 312
337 337 335 333 335 336 336 337 337 340 343 344 343 342 340 339 338 337 335 335 333 331 328 325 321 318 312 311 319 316 316 315 314 313 312 312 311 311 312 312 312 312 312 313
335 336 336 334 334 335 337 339 340 342 344 344 342 341 340 339 336 334 334 333 330 327 324 323 318 312 313 318 318 317 316 315 313 312 312 311 311 312 312 312 312 313 314 314
338 334 333 334 335 335 338 341 343 344 343 341 340 339 339 337 334 334 333 331 329 329 325 315 312 311 315 313 316 317 317 315 312 312 312 311 311 312 313 313 314 315 315 315
336 338 334 334 334 336 339 341 343 343 342 341 341 340 338 334 332 333 331 331 324 321 317 314 314 318 318 316 318 319 318 315 312 312 312 312 313 313 315 315 315 315 315 315
334 336 339 335 335 336 339 341 342 343 343 341 338 338 333 329 326 324 324 332 325 318 317 314 318 317 317 316 318 318 315 313 311 312 312 313 314 315 315 315 315 315 316 316
334 335 337 339 337 335 337 340 341 341 341 338 335 331 329 328 327 327 331 326 321 317 318 317 317 315 316 318 318 316 312 311 311 312 313 314 315 315 315 316 316 317 317 317
333 335 336 337 339 338 338 340 339 340 340 339 337 329 331 328 330 332 328 322 319 316 319 318 315 316 316 318 315 312 312 311 313 313 315 314 315 316 316 317 317 318 318 317
333 334 335 337 338 340 340 340 340 339 339 337 335 332 334 333 334 328 324 321 316 317 318 315 316 316 317 314 312 312 312 313 314 315 315 315 316 316 317 318 318 319 318 318
334 334 336 338 337 337 338 339 339 339 338 336 336 335 335 333 329 325 323 320 316 318 319 316 316 317 316 312 311 311 312 314 314 314 314 315 316 317 318 319 319 319 319 318
338 333 337 336 336 335 335 335 336 338 337 337 335 334 332 328 325 324 322 320 319 318 320 319 319 317 313 311 311 311 313 314 314 315 315 316 317 318 319 320 320 320 319 318

GFSNGP_850_thetae_279.txt.gz
Theta_e
328 328 330 330 331 333 335 337 338 339 337 337 336 337 342 346 351 351 352 351 354 357 357 361 362 361 360 356 347 349 350 350 350 348 348 346 342 335 336 344 342 339 338 337
329 329 329 329 330 331 333 334 335 336 336 336 335 336 338 342 348 352 353 353 353 358 359 360 360 359 355 351 350 350 351 350 348 346 341 338 335 339 341 341 338 339 338 337
329 330 329 329 329 332 333 334 336 337 336 334 335 336 337 341 345 349 352 354 355 359 358 358 358 355 351 349 350 350 350 348 345 343 343 337 336 337 337 336 335 334 333 331
331 331 331 330 331 330 331 332 333 333 332 333 333 333 336 338 343 347 351 354 356 357 357 358 357 351 348 349 350 349 349 346 345 344 342 338 335 334 334 333 333 331 327 325
332 332 332 331 331 331 331 332 332 333 333 333 333 332 336 344 342 346 349 354 356 356 358 358 354 350 349 348 348 348 347 347 346 343 341 335 334 334 332 327 323 324 324 323
338 336 334 332 332 331 333 334 335 337 338 340 338 339 345 348 347 346 348 353 357 357 359 358 353 350 349 348 348 347 347 345 344 343 339 338 335 329 317 315 324 323 324 324
336 339 338 337 339 335 334 342 343 343 345 345 347 348 346 345 347 346 349 353 357 359 359 357 353 351 349 348 347 347 345 345 344 338 338 335 328 314 313 321 324 323 323 322
336 336 339 340 338 338 345 344 344 344 344 345 345 347 346 347 348 347 351 355 358 359 357 355 352 350 349 347 346 345 345 343 338 338 334 330 315 316 325 325 324 324 323 323
336 341 334 337 341 341 341 341 343 341 342 344 345 346 346 351 348 349 352 357 358 358 356 354 351 349 349 346 346 345 344 341 338 336 329 320 322 325 324 320 323 323 322 320
335 336 334 338 336 338 338 339 339 339 339 342 344 345 347 351 349 352 354 359 358 356 354 353 350 350 350 347 346 344 341 340 337 335 322 324 325 324 323 321 320 319 318 317
338 334 334 336 339 339 338 337 339 339 339 341 343 345 347 349 350 354 356 358 357 356 354 352 350 351 348 346 344 341 338 334 330 326 319 324 322 320 319 319 317 316 315 314
335 339 341 341 338 337 337 338 339 340 341 341 344 345 348 351 353 353 358 357 358 354 353 350 351 345 344 343 337 340 336 329 326 322 323 321 320 316 316 315 309 309 307 306
333 334 335 336 335 335 336 337 338 340 341 343 343 344 348 352 356 359 360 356 356 352 352 349 345 342 337 334 333 338 335 325 320 321 320 320 319 319 318 316 315 314 313 312
331 331 331 332 333 333 336 337 339 339 341 342 344 346 347 350 352 350 351 353 352 351 349 345 343 339 335 333 336 334 323 320 319 320 320 320 319 319 318 316 316 316 315 314
328 329 330 330 332 333 336 338 339 339 340 342 345 347 348 350 348 346 346 347 349 347 343 339 335 334 334 336 334 321 319 317 321 321 320 319 319 318 317 315 315 315 315 315
330 333 333 333 334 336 337 338 339 339 340 342 344 347 348 347 343 341 341 343 343 341 338 337 334 334 334 330 319 316 319 320 320 320 318 316 317 316 315 314 314 315 315 315
335 334 333 333 334 336 337 337 337 338 339 344 346 347 345 340 339 338 341 341 339 337 333 335 334 329 320 314 319 320 318 316 317 317 316 316 315 314 314 314 315 315 314 314
340 339 338 334 334 337 337 336 336 338 339 345 347 345 340 338 336 336 336 336 335 331 329 327 322 315 314 319 318 317 316 316 316 315 314 313 314 313 315 315 315 314 315 316
339 339 339 339 337 336 337 337 339 340 345 348 346 342 342 340 339 338 335 334 332 331 327 322 317 314 315 317 316 318 317 316 314 314 314 312 313 314 314 314 314 316 316 317
340 339 337 337 337 336 337 339 342 345 347 346 345 343 342 339 338 335 332 328 326 324 319 317 317 320 320 317 318 318 318 317 314 314 314 314 314 314 315 315 316 317 316 316
338 340 340 336 336 336 337 340 344 346 346 345 343 342 340 337 335 335 331 330 324 323 322 315 320 321 318 317 319 320 320 316 314 314 313 314 314 316 317 317 317 317 317 317
338 338 340 338 336 337 338 340 344 346 346 344 344 342 338 333 333 333 332 329 327 326 318 314 318 320 318 317 320 320 319 316 314 314 314 315 316 317 317 317 317 318 318 318
337 338 339 341 339 337 339 341 344 345 345 345 343 342 337 333 331 329 328 328 327 323 318 318 319 318 318 317 321 319 317 314 313 314 315 316 317 317 317 318 318 319 319 319
337 337 338 339 340 341 338 339 342 344 345 344 341 339 334 331 330 330 332 331 327 319 320 319 318 316 316 320 320 318 313 312 314 315 316 316 317 318 318 319 319 320 320 319
336 336 337 338 339 341 342 341 342 344 344 341 339 336 333 333 334 334 331 327 323 319 321 319 317 315 318 320 316 313 314 314 315 316 317 318 318 318 319 320 320 321 321 320
337 336 336 338 340 340 340 342 342 342 342 342 341 338 335 336 336 333 329 324 319 321 321 318 315 316 319 317 314 313 314 315 315 316 317 317 318 319 320 321 321 321 321 320
338 336 337 338 337 338 338 339 341 342 342 341 340 339 338 338 334 329 326 322 320 320 320 317 317 317 318 315 313 313 314 316 316 317 318 318 319 320 321 321 322 322 322 321

GFSNGP_850_thetae_285.txt.gz
Theta_e
323 325 325 325 325 328 328 327 328 339 338 337 342 341 337 351 350 351 351 352 353 354 355 356 355 356 356 357 358 355 356 351 345 354 354 351 347 347 345 344 343 340 337 335
326 326 325 325 326 326 328 328 329 335 338 336 337 339 339 351 351 352 352 352 353 354 355 358 359 359 359 359 359 359 353 354 353 352 351 348 348 345 344 339 337 338 336 334
326 326 325 325 326 326 326 328 329 328 329 336 335 333 336 348 352 353 353 352 354 356 357 358 359 360 361 361 360 355 354 351 351 351 349 348 344 341 344 344 337 335 334 331
336 332 329 326 326 327 327 327 327 330 330 335 335 340 346 349 352 353 353 352 352 357 358 359 359 359 361 361 354 353 352 351 348 348 346 343 343 342 343 337 334 329 321 317
334 335 331 329 339 341 340 331 340 342 332 334 340 345 345 346 347 349 352 352 352 355 358 359 362 363 362 359 353 352 351 350 348 344 345 343 343 343 336 333 325 316 318 318
334 335 336 341 339 339 340 341 341 343 344 338 341 346 344 345 345 345 351 353 353 354 359 360 362 362 360 355 352 352 351 350 345 344 343 343 340 337 334 324 315 321 323 322
337 340 343 338 340 341 346 348 340 337 342 346 344 345 346 347 345 345 347 355 354 355 360 361 361 360 356 352 352 351 350 346 345 343 342 341 340 335 323 315 321 320 316 321
341 344 344 335 338 342 338 339 337 334 334 339 345 345 346 347 345 347 349 345 356 358 359 359 359 358 352 351 351 350 348 346 343 342 341 340 337 331 316 313 313 323 322 322
337 340 335 333 336 337 336 336 337 336 334 335 341 343 348 349 348 348 351 355 357 358 358 359 358 357 351 350 350 349 348 345 342 342 338 336 334 324 313 322 322 323 324 326
335 337 333 332 332 333 338 338 334 335 334 334 339 341 345 347 348 350 354 357 358 357 358 357 352 350 349 350 350 349 348 344 341 340 338 336 327 320 323 324 326 325 319 316
332 331 330 333 332 334 335 336 339 334 340 340 339 340 342 345 350 349 350 357 357 359 357 353 352 351 350 349 346 346 345 342 340 339 338 334 322 324 324 322 319 318 318 315
334 331 331 332 332 336 333 333 334 336 339 341 341 342 343 349 351 352 357 361 360 358 356 353 351 350 349 346 334 332 335 335 334 338 336 327 324 323 322 320 316 315 314 314
331 331 330 331 336 338 333 335 334 335 336 340 341 341 342 346 351 352 355 357 354 355 353 352 350 350 349 343 339 336 334 335 335 337 330 323 321 320 317 318 319 316 315 315
331 331 332 332 334 336 339 336 334 334 338 338 338 341 342 346 351 351 352 352 355 355 352 351 349 348 347 342 337 337 336 337 335 335 322 321 321 321 320 320 318 316 316 316
332 331 330 330 330 329 330 332 333 333 335 337 338 342 345 349 348 350 348 341 342 350 350 350 348 347 343 341 340 339 337 334 335 326 322 322 321 320 319 318 316 316 315 316
331 332 332 332 334 333 333 333 333 336 336 337 342 346 347 347 347 346 345 340 344 346 345 346 346 345 343 339 341 337 334 334 320 321 321 322 320 320 318 317 316 315 316 316
332 332 334 335 335 335 333 333 333 336 338 342 347 345 340 335 344 342 340 342 341 343 343 344 344 343 339 341 333 333 331 320 322 323 322 321 320 315 316 315 315 316 315 315
334 335 335 335 337 338 336 336 337 338 341 342 341 339 340 341 338 338 339 340 341 341 341 341 341 338 335 333 334 330 320 322 320 320 317 317 317 315 315 315 315 315 316 317
336 336 338 339 339 339 339 338 339 347 341 338 344 342 341 337 336 338 339 338 337 336 336 335 335 334 334 329 323 320 320 321 317 317 316 315 315 314 315 315 316 317 317 318
338 339 340 340 340 339 340 338 338 342 339 340 344 340 335 335 338 336 335 335 334 333 332 331 329 324 322 321 319 317 315 316 316 314 315 314 314 315 316 316 317 318 318 318
338 339 340 341 340 337 339 337 340 347 344 344 340 339 335 336 336 336 335 334 332 331 330 327 322 320 318 318 319 319 317 315 315 315 314 315 315 316 317 318 318 318 318 321
339 339 340 341 342 337 337 337 343 345 344 343 342 341 337 336 336 336 335 334 332 330 325 324 323 322 318 318 319 319 319 317 315 314 315 316 317 317 318 318 319 319 321 321
339 339 340 341 343 341 339 340 345 345 346 344 342 341 339 337 336 335 334 331 331 327 327 325 323 316 317 319 321 321 319 317 315 315 315 316 317 318 318 319 320 320 319 320
339 339 339 340 340 341 341 339 344 346 347 346 343 340 340 334 333 333 333 331 330 328 327 325 316 316 319 321 321 321 319 316 315 315 315 317 317 318 319 320 321 321 321 322
340 338 338 338 338 340 341 341 342 346 347 345 344 341 339 334 329 331 331 329 327 325 324 319 313 315 318 321 321 320 317 315 314 315 317 317 318 319 319 320 321 322 322 322
339 337 337 339 339 340 341 342 343 341 343 343 342 340 337 334 332 330 329 327 325 324 319 318 318 318 316 320 321 320 320 315 314 315 317 319 319 320 320 321 322 322 323 323
334 333 336 337 337 337 338 339 338 338 337 338 340 340 338 333 333 331 332 333 326 324 320 320 319 317 317 321 320 318 314 313 315 316 317 319 319 320 321 322 322 323 323 323

GFSNGP_850_thetae_291.txt.gz
Theta_e
318 319 321 322 324 320 321 320 323 322 332 333 336 337 337 339 338 338 343 342 345 347 347 348 347 347 346 347 348 349 352 353 355 349 342 343 343 341 340 338 338 339 339 340
323 326 324 335 338 334 329 342 325 327 329 334 333 335 335 337 340 343 344 343 347 348 348 349 349 349 348 349 350 351 353 356 352 345 343 343 345 346 342 339 338 339 339 335
328 325 324 323 338 339 337 339 340 338 333 335 334 334 335 335 336 340 346 343 348 349 349 349 350 351 351 349 352 355 356 355 351 344 343 345 347 346 341 340 341 338 335 332
326 324 329 324 333 337 340 337 336 337 337 336 335 335 339 344 339 337 343 346 348 350 350 351 351 352 353 353 355 356 357 355 351 345 346 350 350 346 343 343 340 335 332 321
328 325 325 334 333 334 338 341 337 338 338 337 337 345 347 346 347 340 338 347 347 348 350 352 353 354 354 356 356 357 357 355 351 347 347 349 349 346 345 341 335 332 319 316
325 330 331 332 334 333 333 341 338 337 337 337 337 347 342 347 348 349 347 345 349 350 353 352 353 355 355 356 357 357 357 354 348 350 350 349 348 346 341 335 334 320 318 317
333 333 331 332 333 334 341 341 336 337 337 336 332 337 342 344 342 347 349 348 349 350 351 352 354 355 356 357 358 354 350 351 349 349 349 348 344 340 336 335 323 320 319 321
332 336 334 331 332 333 333 335 337 336 336 335 335 334 340 343 343 343 348 349 349 350 352 354 356 356 357 357 354 349 345 347 345 348 346 344 340 338 336 328 319 316 320 322
331 330 328 333 331 333 333 335 336 335 335 336 336 336 337 334 338 342 347 351 352 351 353 357 358 359 358 354 350 345 345 348 347 345 343 339 335 337 333 319 318 320 322 322
329 325 328 329 332 332 332 331 336 336 336 335 337 335 336 337 338 336 342 346 354 355 357 358 360 358 354 352 348 346 348 348 345 342 336 331 338 338 323 318 320 322 323 322
327 326 328 329 329 329 332 329 331 336 336 333 338 339 339 336 335 341 347 347 348 356 357 355 352 348 345 350 347 344 344 348 343 336 330 338 337 331 317 321 323 321 317 316
326 326 326 328 329 330 331 331 330 335 336 333 333 335 338 341 340 341 342 340 347 355 356 354 349 343 338 344 348 343 345 346 337 333 336 338 333 320 323 322 314 314 313 312
328 329 330 330 330 331 330 331 332 334 332 329 330 332 336 343 340 338 339 343 342 346 352 352 350 349 343 347 346 344 343 342 336 337 339 336 328 323 322 317 315 315 314 314
326 328 329 330 331 331 331 332 334 331 331 333 334 336 335 339 344 343 342 340 338 337 340 344 349 349 348 345 346 345 338 336 333 339 337 334 326 323 322 319 316 315 315 314
325 325 325 327 331 331 331 330 331 332 333 332 335 334 337 340 344 343 344 342 340 337 336 345 352 350 348 347 347 341 334 332 334 337 336 331 321 318 319 319 317 315 315 315
327 326 326 326 326 333 334 333 332 331 332 333 338 338 342 348 346 344 342 339 336 334 335 335 346 346 345 346 344 336 333 332 335 336 334 322 319 319 319 318 316 316 315 315
327 327 329 329 329 333 332 332 333 335 336 336 342 344 345 343 340 338 334 332 335 336 337 339 342 345 345 345 340 336 336 335 336 335 322 320 320 319 319 319 317 316 315 315
327 328 329 330 329 329 331 334 334 336 336 337 340 339 335 333 333 334 333 337 336 336 340 341 342 341 344 340 336 338 337 335 336 327 321 321 320 319 318 316 315 315 315 315
329 330 329 330 329 331 335 335 337 338 338 337 339 337 329 332 337 336 337 335 336 338 339 339 340 342 343 342 338 338 337 335 333 322 322 322 320 318 315 314 315 315 317 318
330 330 330 330 335 337 337 339 339 339 339 338 340 336 333 335 337 338 332 334 335 337 336 338 339 340 338 338 337 337 335 327 321 321 321 319 316 314 315 315 316 317 318 319
332 331 331 336 337 338 340 340 338 339 340 339 334 332 331 333 336 331 332 333 335 336 336 336 336 334 335 335 330 323 320 320 319 318 317 315 314 315 316 317 317 318 319 320
334 335 336 336 339 339 340 340 337 339 340 339 336 331 331 338 332 332 334 333 333 333 334 333 333 332 332 325 321 320 320 318 315 315 315 314 314 315 316 317 318 320 319 318
334 335 336 338 338 338 339 340 338 338 340 338 334 334 336 335 333 332 333 333 333 333 331 328 326 325 324 321 320 319 316 317 320 313 314 314 315 316 317 318 318 319 319 321
331 333 332 336 337 338 338 340 339 342 340 336 336 335 336 334 333 333 333 333 331 331 328 325 322 321 320 318 319 319 317 316 316 315 314 315 316 318 317 318 319 320 321 322
330 331 330 332 337 337 338 339 341 340 339 338 335 332 330 326 333 333 333 332 331 329 327 324 321 321 321 319 319 319 319 318 316 314 315 316 317 317 317 319 320 321 321 321
327 327 328 330 336 337 337 336 337 340 338 337 334 327 327 327 331 333 332 333 331 327 325 323 322 321 319 319 319 319 317 315 314 315 315 316 317 318 320 321 321 321 321 320
328 327 327 331 335 335 336 336 336 335 337 337 336 334 328 327 331 330 329 332 330 327 324 323 321 318 319 319 317 316 318 315 314 315 315 316 316 319 320 321 322 320 320 319